This is the latest recevied weather packets stored in our database for station/object KA9CBS. If no packets are shown the sender has not sent any weather packets the latest 10 day(s).
| Time | Temp. | Humidity | Pressure | Rain* | Wind** | Luminosity | Snow |
|---|---|---|---|---|---|---|---|
| 1777998572 | 11.67° C | 96% | 1010.5 hPa | 0 mm | - | 82 W/m² | - |
| 1777998267 | 11.11° C | 96% | 1010.4 hPa | 0 mm | - | 111 W/m² | - |
| 1777997964 | 11.11° C | 96% | 1010.1 hPa | 0 mm | - | 96 W/m² | - |
| 1777997661 | 11.67° C | 97% | 1010.3 hPa | 0 mm | - | 77 W/m² | - |
| 1777997359 | 11.11° C | 97% | 1010.4 hPa | 0 mm | - | 60 W/m² | - |
| 1777997057 | 11.67° C | 97% | 1010.5 hPa | 0 mm | - | 47 W/m² | - |
| 1777996753 | 11.67° C | 97% | 1010.3 hPa | 0 mm | - | 50 W/m² | - |
| 1777996449 | 11.11° C | 97% | 1010.3 hPa | 0 mm | - | 53 W/m² | - |
| 1777996146 | 11.11° C | 97% | 1010.6 hPa | 0 mm | - | 54 W/m² | - |
| 1777995843 | 11.11° C | 97% | 1010.7 hPa | 0 mm | - | 51 W/m² | - |
| 1777995539 | 11.11° C | 97% | 1010.4 hPa | 0 mm | - | 83 W/m² | - |
| 1777995236 | 11.11° C | 97% | 1010.1 hPa | 0 mm | - | 62 W/m² | - |
| 1777994932 | 11.11° C | 97% | 1010.2 hPa | 0 mm | - | 88 W/m² | - |
| 1777994629 | 11.11° C | 97% | 1010.1 hPa | 0 mm | - | 77 W/m² | - |
| 1777994324 | 10.56° C | 97% | 1010.2 hPa | 0 mm | - | 72 W/m² | - |
| 1777994020 | 10.56° C | 97% | 1009.9 hPa | 0 mm | - | 80 W/m² | - |
| 1777993712 | 10.56° C | 97% | 1010 hPa | 0 mm | - | 73 W/m² | - |
| 1777993409 | 10.56° C | 97% | 1009.4 hPa | 0 mm | - | 57 W/m² | - |
| 1777993103 | 10.56° C | 97% | 1009.2 hPa | 0 mm | - | 51 W/m² | - |
| 1777992802 | 11.11° C | 98% | 1009 hPa | 0 mm | - | 61 W/m² | - |
| 1777992499 | 11.11° C | 98% | 1009.2 hPa | 0 mm | - | 99 W/m² | - |
| 1777992198 | 11.11° C | 98% | 1009.5 hPa | 0 mm | - | 88 W/m² | - |
| 1777991894 | 11.11° C | 98% | 1009.9 hPa | 0 mm | - | 67 W/m² | - |
| 1777991592 | 11.11° C | 98% | 1010.1 hPa | 0 mm | - | 33 W/m² | - |
| 1777991288 | 11.67° C | 98% | 1010.3 hPa | 0 mm | - | 24 W/m² | - |
* Rain latest hour (hover to see other rain measurements)
** Current wind speed in m/s (hover to see current wind gust speed)